This is the latest recevied weather packets stored in our database for station/object WA9NNN-10. If no packets are shown the sender has not sent any weather packets the latest 10 day(s).
| Time | Temp. | Humidity | Pressure | Rain* | Wind** | Luminosity | Snow |
|---|---|---|---|---|---|---|---|
| 1788454410 | 28.33° C | 76% | 1015 hPa | 0 mm | - | - | - |
| 1788454111 | 28.89° C | 75% | 1014.9 hPa | 0 mm | - | - | - |
| 1788453810 | 28.89° C | 73% | 1015 hPa | 0 mm | - | - | - |
| 1788453511 | 29.44° C | 71% | 1015.1 hPa | 0 mm | - | - | - |
| 1788453210 | 29.44° C | 70% | 1015 hPa | 0 mm | - | - | - |
| 1788452911 | 30° C | 69% | 1015.1 hPa | 0 mm | - | - | - |
| 1788452611 | 30° C | 69% | 1014.9 hPa | 0 mm | - | - | - |
| 1788452311 | 30.56° C | 68% | 1014.6 hPa | 0 mm | - | - | - |
| 1788452010 | 30.56° C | 67% | 1014.6 hPa | 0 mm | - | - | - |
| 1788451711 | 31.11° C | 66% | 1014.5 hPa | 0 mm | - | - | - |
| 1788451411 | 31.67° C | 64% | 1014.4 hPa | 0 mm | - | - | - |
| 1788451111 | 32.78° C | 61% | 1014.1 hPa | 0 mm | - | - | - |
| 1788450810 | 33.89° C | 58% | 1014.1 hPa | 0 mm | - | - | - |
| 1788450510 | 34.44° C | 56% | 1013.7 hPa | 0 mm | - | - | - |
| 1788450232 | 34.44° C | 57% | 1013.7 hPa | 0 mm | - | - | - |
| 1788449910 | 34.44° C | 57% | 1013.5 hPa | 0 mm | - | - | - |
| 1788449610 | 34.44° C | 57% | 1013.5 hPa | 0 mm | - | - | - |
| 1788449311 | 34.44° C | 57% | 1013.5 hPa | 0 mm | - | - | - |
| 1788449010 | 34.44° C | 57% | 1013.5 hPa | 0 mm | - | - | - |
| 1788448711 | 34.44° C | 57% | 1013.4 hPa | 0 mm | - | - | - |
| 1788448411 | 34.44° C | 56% | 1013.4 hPa | 0 mm | - | - | - |
| 1788448110 | 34.44° C | 57% | 1013.5 hPa | 0 mm | - | - | - |
| 1788447811 | 34.44° C | 57% | 1013.5 hPa | 0 mm | - | - | - |
| 1788447511 | 34.44° C | 57% | 1013.5 hPa | 0 mm | - | - | - |
| 1788446010 | 32.78° C | 63% | 1013.4 hPa | 0 mm | - | - | - |
* Rain latest hour (hover to see other rain measurements)
** Current wind speed in m/s (hover to see current wind gust speed)